Location: Charbonni�res
(45.9952°N, 2.9982°E)
Time: 17:25:12
(UTC+00:00)

RESURS DK-1 - Pass Details

Date: 29 November 2020
Orbit: 556 x 561 km, 69.9° (Epoch: 17 January)

Event Time Altitude Azimuth Distance (km) Brightness Sun altitude
Exits shadow 06:03:25 - 235° (SW) 2,712 5.5 -10.9°
Reaches altitude 10° 06:05:46 10° 247° (WSW) 1,849 4.6 -10.5°
Maximum altitude 06:09:22 28° 308° (NW) 1,061 3.2 -9.9°
Drops below altitude 10° 06:13:00 10° 8° (N) 1,861 4.9 -9.3°
Sets 06:15:28 0° 20° (NNE) 2,761 5.9 -8.9°
